< < Back
Terminal Aerodrome Forecast


Current Version              Previous Versions:   1  2  3  4  5  6  7  8  9  

Terminal Aerodrome Forecast

828
FTUS42 KGSP 301130
TAFAVL
TAF
KAVL 301130Z 3012/3112 34005KT 6SM BR SCT015
      TEMPO 3012/3013 2SM BR BKN003
     FM301400 34005KT P6SM SCT045
     FM301600 34005KT P6SM SCT060
     FM301800 32005KT P6SM VCTS BKN060CB
     FM302100 28005KT P6SM BKN060 PROB30 3021/3101 4SM -TSRA
      OVC040CB
     FM310900 VRB02KT 4SM BR SCT150=

Latest METAR

641
SAUS70 KWBC 302300 RRB
MTRAVL
METAR KAVL 302254Z VRB04KT 10SM CLR 24/19 A3007 RMK AO2 SLP156
T02390194


USA.gov is the U.S. government's official web portal to all federal, state and local government web resources and services.